STARLINK-32043 (60135 NORAD) Tracking and Keplerian Element Data

This shows tracking and keplerian element data for the satellite.

Feedback or suggestion? Click here.




ElementValue
Catalog60135
NameSTARLINK-32043
Epoch Orbit597
Epoch Day286.66667824
Epoch Year2024
RAAN187.377
Inclination53.1584
Eccentricity0.0001356
Argument of Perigee54.4583
Mean Anonmoly50.5381
Mean Motion15.397127
Decay Rate-0.00109918
L11 60135U 24120A 24286.66667824 -.00109918 00000+0 -27692-2 0 9998
L22 60135 53.1584 187.3770 0001356 54.4583 50.5381 15.39712700 5978



Live tracking and technical data element details for STARLINK-32043 (NORAD 60135). STARLINK-32043 can be tracked NOW for your location showing map with azimuth and elevation plus other details from your city location.







IsCatalogInMostPopularTable: catalog: 60135, numindb: 11
Update: records affected: 1



GetName: 60135 STARLINK-32043

Hit Count: updated at: Thu, 23 Jan 2025 12:59:50 GMT